This demonstration page uses our WeatherBlox Daily Observations layout. Learn more.

Left ArrowRight Arrow

39.92423, -83.80882

Hourly Observations for October 7, 2020

Temp ( °F °C ) Dew Point ( °F °C ) Humidity (%) Winds ( mph kmh ) Pressure ( in mb ) Visibility ( mi km ) Precip ( " mm )
12:56 am 00:56 Clear 55 12.8 44 6.7 67 67 SSW 9 15 29.95 1014 10 16.0934 0 0
1:56 am 01:56 Clear 55 12.8 45 7.2 69 69 SW 9 15 29.95 1014 10 16.0934 0 0
2:56 am 02:56 Clear 56 13.3 46 7.8 70 70 SW 10 17 29.93 1014 10 16.0934 0 0
3:56 am 03:56 Clear 57 13.9 46 7.8 67 67 SW 12 19 29.92 1013 10 16.0934 0 0
4:56 am 04:56 Clear 54 12.2 47 8.3 77 77 SW 10 17 29.91 1013 10 16.0934 0 0
5:56 am 05:56 Clear 54 12.2 47 8.3 77 77 SW 8 13 29.92 1013 10 16.0934 0 0
6:56 am 06:56 Clear 53 11.7 47 8.3 80 80 SW 9 15 29.92 1013 10 16.0934 0 0
7:56 am 07:56 Sunny 53 11.7 47 8.3 80 80 SW 9 15 29.92 1013 10 16.0934 0 0
8:56 am 08:56 Sunny 55 12.8 49 9.4 80 80 SW 8 13 29.93 1014 10 16.0934 0 0
9:56 am 09:56 Sunny 61 16.1 51 10.6 70 70 SW 9 15 29.92 1013 10 16.0934 0 0
10:56 am 10:56 Sunny 68 20 53 11.7 59 59 W 14 22 29.91 1013 10 16.0934 0 0
11:56 am 11:56 Sunny 71 21.7 54 12.2 55 55 WSW 15 24 29.89 1012 10 16.0934 0 0
12:56 pm 12:56 Sunny 74 23.3 55 12.8 52 52 WSW 14 22 29.89 1012 10 16.0934 0 0
1:56 pm 13:56 Sunny 80 26.7 54 12.2 41 41 W 20 31 29.88 1012 10 16.0934 0 0
2:56 pm 14:56 Sunny 80 26.7 55 12.8 42 42 WNW 18 30 29.87 1012 10 16.0934 0 0
3:56 pm 15:56 Sunny 80 26.7 53 11.7 39 39 WNW 16 26 29.87 1012 10 16.0934 0 0
4:56 pm 16:56 Sunny 80 26.7 51 10.6 37 37 WNW 13 20 29.88 1012 10 16.0934 0 0
5:56 pm 17:56 Sunny 77 25 50 10 39 39 WNW 13 20 29.9 1013 10 16.0934 0 0
6:56 pm 18:56 Sunny 73 22.8 48 8.9 41 41 WNW 8 13 29.93 1014 10 16.0934 0 0
7:56 pm 19:56 Clear 69 20.6 44 6.7 41 41 NNW 13 20 29.97 1015 10 16.0934 0 0
8:56 pm 20:56 Clear 64 17.8 43 6.1 46 46 NNW 8 13 29.99 1016 10 16.0934 0 0
9:56 pm 21:56 Clear 60 15.6 43 6.1 53 53 NNW 6 9 30.02 1017 10 16.0934 0 0
10:56 pm 22:56 Clear 58 14.4 40 4.4 51 51 N 5 7 30.04 1017 10 16.0934 0 0
11:56 pm 23:56 Clear 55 12.8 41 5 59 59 NNE 6 9 30.05 1018 10 16.0934 0 0

Powered by AerisWeather